sat.trackr.live / text

‹ back to catalog

STARLINK-5714

NORAD 55614 · 2023-020AX

PAYLOAD ACTIVE UNKNOWN

§ Identity

Operator
Country
US
Launch date
2023-02-12
Launch site
AFETR
Launch vehicle
Mass (kg)
RCS (m²)

Purposes: comms

External: N2YO · Heavens-Above · Gunter

§ Orbital elements

Epoch: 2026-05-24T18:14:52.486944Z

Period
94.27 min
Inclination
43.0027°
Eccentricity
0.0001492
Mean motion
15.27577185 rev/d
Perigee alt
482.0 km
Apogee alt
484.1 km
Semi-major
6,861.2 km
B*
4.0899e-5
RAAN
269.8385°
Arg perigee
263.6216°
Mean anomaly
96.4466°
Rev number
18,084

§ Raw data

STARLINK-57141 55614U 23020AX  26144.76032971  .00000863  00000+0  40899-4 0  99902 55614  43.0027 269.8385 0001492 263.6216  96.4466 15.27577185180846

JSON: /api/v1/satellites/55614 · /tle

For live sub-satellite position, see the globe view (requires WebGL).

§ Visibility from observer

Set your observer location to see the next 7 days of passes ≥ 10°. The values pass through the URL so the page stays shareable.

No JS? Fill the form by hand. The geolocation button needs JavaScript.